Theta_e
312 313 314 314 316 318 316 314 315 315 318 318 321 324 326 330 332 332 331 330 330 329 329 328 327 327 328 327 327 327 328 331 334 335 335 335 336 337 335 323 318 319 317 317 317 319 320 321 323 323 323 323 324 326 325 324 322 321 325 327 326 327 328 328 328 326 322 319 320 321 322 323 322 322 321 321 322 322 322 324 326 324 323 326 333 337 333 333
311 313 313 313 314 318 317 314 314 314 316 317 321 323 325 329 332 332 331 330 330 329 329 329 327 328 329 328 328 327 328 332 334 335 334 333 335 337 336 326 318 318 318 317 318 320 321 321 324 324 324 325 325 325 325 325 323 323 325 326 327 329 327 325 324 321 321 320 319 320 320 322 322 322 321 321 322 322 322 323 325 326 324 324 330 334 331 331
312 312 313 314 314 317 317 314 313 313 314 316 320 322 324 328 331 332 331 329 330 329 329 329 327 328 330 329 328 327 329 333 331 332 334 334 335 335 335 329 319 317 318 316 318 321 322 322 325 326 325 326 327 325 325 324 323 323 325 327 328 328 325 322 322 319 320 320 318 319 318 320 321 321 321 321 322 321 322 323 323 326 326 324 326 329 328 329
312 312 313 314 314 315 316 314 314 314 314 315 319 321 323 328 329 331 332 329 330 330 329 329 327 328 331 331 330 329 330 331 327 330 333 333 335 333 333 332 321 317 318 317 319 322 322 323 325 326 326 327 328 327 325 324 324 324 324 326 326 325 325 321 320 319 319 319 319 318 317 318 319 320 321 321 322 322 322 323 323 324 326 324 322 325 325 326
312 312 312 314 314 315 316 314 315 315 314 314 317 319 322 327 328 329 332 330 330 330 330 329 327 329 332 332 332 330 329 329 328 331 332 332 334 332 332 332 322 316 317 317 320 322 322 324 326 327 327 328 330 329 327 324 324 325 324 325 324 323 324 320 318 318 318 319 319 318 317 318 318 319 320 320 321 322 321 322 322 323 324 324 322 322 323 324
311 311 312 313 313 315 316 315 315 315 315 315 315 318 320 325 329 328 331 331 329 330 330 329 328 330 332 332 332 330 328 329 328 329 331 331 333 332 332 327 319 316 316 317 321 322 323 325 327 328 327 329 331 331 330 327 325 325 324 324 323 322 321 318 317 318 318 318 318 318 318 318 318 318 318 319 320 320 320 321 321 321 323 324 323 322 322 322
310 311 312 312 313 315 316 315 315 314 315 315 315 317 318 323 328 328 330 331 329 330 330 329 328 330 332 331 329 328 328 328 326 326 329 331 331 331 331 324 317 317 317 319 324 324 325 327 328 329 328 330 332 331 331 330 327 325 325 324 323 323 320 317 317 317 317 318 318 317 317 317 317 318 318 318 319 319 319 320 319 320 324 326 324 323 321 320
310 310 311 313 315 316 316 314 313 314 315 315 315 316 317 321 327 328 329 330 328 329 330 329 328 330 331 329 327 325 326 327 325 325 327 329 330 328 327 322 318 318 318 320 325 326 327 328 328 329 329 331 332 331 333 331 327 324 326 327 323 323 320 316 316 317 316 317 317 316 316 317 317 317 317 317 318 318 318 319 318 318 326 329 324 322 321 319
310 311 312 314 317 316 314 313 312 314 315 315 314 315 316 320 326 328 329 331 329 328 330 330 328 329 329 329 326 323 323 326 325 324 325 328 329 324 321 320 320 320 319 321 324 326 327 328 328 329 330 332 332 332 334 332 326 322 325 328 323 320 320 317 316 316 316 316 315 315 316 317 317 317 317 318 318 318 318 319 318 317 325 330 326 322 320 319
310 311 313 316 316 314 313 312 311 313 314 314 313 314 315 318 323 328 329 330 329 328 330 330 330 329 327 326 324 322 323 325 325 324 324 326 327 323 318 319 320 320 321 322 324 325 326 328 328 329 330 331 332 333 333 330 326 323 325 328 323 319 320 318 317 317 316 317 316 315 317 317 317 316 317 319 318 318 318 318 318 317 320 325 328 325 321 319
311 313 314 314 314 313 312 311 311 312 313 313 312 312 313 315 320 325 328 330 328 328 329 330 329 329 328 327 324 323 323 324 325 323 323 325 326 324 319 319 319 319 320 321 324 325 327 329 327 330 332 331 331 333 332 328 326 327 326 326 323 320 320 318 318 318 317 318 317 316 317 317 316 316 317 318 318 318 318 317 318 318 318 321 325 327 325 321
311 313 313 313 314 314 312 310 310 311 313 312 312 312 312 314 317 320 325 329 328 327 328 329 329 328 327 326 325 323 322 324 325 323 322 324 325 323 320 319 319 320 320 320 323 325 327 328 327 329 331 329 330 332 332 328 326 327 325 323 321 320 320 319 318 319 318 318 318 317 319 319 317 316 317 318 318 318 318 318 319 319 319 321 323 326 326 324
311 312 313 313 314 314 311 310 309 310 312 312 312 312 311 313 316 319 322 326 328 327 328 329 329 326 324 323 324 324 323 324 325 323 322 323 322 321 320 321 321 322 323 322 323 325 327 327 328 327 326 327 329 329 329 327 327 326 324 323 324 324 322 321 320 320 319 318 317 319 322 323 321 319 318 319 318 317 317 318 320 320 319 320 321 324 326 325
312 312 312 312 313 313 311 309 309 310 310 311 312 311 311 313 316 318 319 322 327 327 327 329 328 325 323 323 323 324 324 324 325 323 323 323 322 321 322 322 322 322 322 323 323 324 326 326 328 327 326 327 326 324 326 328 327 326 326 327 329 330 328 325 322 320 320 319 318 319 322 325 324 322 320 319 318 317 318 318 319 321 320 320 321 323 325 325
312 311 310 311 312 312 311 309 310 311 310 310 311 310 310 313 317 317 316 319 325 327 327 328 325 322 322 323 323 324 324 324 324 324 323 323 323 322 323 323 322 321 321 322 322 323 324 325 327 326 326 326 323 323 326 327 326 326 329 330 330 331 331 328 324 322 321 319 318 320 322 323 323 323 321 319 319 318 317 318 318 320 320 320 321 323 325 326
311 310 310 311 312 312 312 310 310 312 311 310 311 311 310 312 316 317 316 318 324 328 328 326 322 321 322 323 322 323 324 324 324 324 324 324 323 322 323 322 321 321 321 322 323 324 324 325 326 325 325 324 323 324 326 326 326 327 329 331 332 331 330 329 327 325 322 319 318 320 323 325 323 323 322 319 318 318 317 318 318 319 319 321 321 323 324 326
311 311 311 312 313 312 312 312 312 313 312 311 310 311 310 312 315 317 315 317 323 328 327 325 322 322 323 323 323 323 324 324 324 325 324 324 322 322 322 322 321 322 322 324 324 324 324 323 324 326 325 323 323 323 328 330 330 329 330 331 331 331 331 330 328 327 325 321 320 320 322 326 324 322 322 320 318 317 317 318 319 318 319 320 321 322 322 322
311 312 313 313 313 312 312 313 313 313 312 311 310 310 310 311 314 317 315 315 321 326 326 324 322 323 324 322 323 324 324 324 324 325 325 323 321 321 322 321 322 322 321 322 322 322 323 321 322 327 327 325 324 324 329 332 331 330 331 330 330 331 332 329 326 327 326 325 324 322 321 323 324 323 321 319 318 318 318 319 320 320 320 319 320 322 321 320
312 313 313 313 312 313 313 313 313 312 311 311 311 311 311 312 314 317 315 314 321 325 324 323 321 324 325 322 323 324 324 324 325 325 325 323 320 321 322 321 322 322 319 320 320 320 321 319 321 327 329 327 325 324 329 330 329 331 331 329 329 331 332 329 325 325 326 326 326 324 322 323 324 324 322 320 319 319 320 320 320 321 320 319 319 320 321 321
312 313 313 313 312 313 313 313 312 311 310 311 311 311 313 314 315 316 314 315 321 325 323 322 322 323 324 322 323 324 323 324 326 326 325 323 321 320 322 322 322 321 319 319 320 319 320 321 323 326 327 326 325 324 327 328 329 331 330 329 329 330 331 329 325 323 324 325 326 325 325 325 325 326 324 323 321 318 318 319 319 320 319 318 318 318 319 320
312 312 312 313 313 312 312 312 312 311 311 311 311 312 313 314 315 315 315 316 320 323 323 323 323 323 323 323 324 324 324 324 325 325 324 323 322 322 322 322 321 321 320 320 320 319 320 322 323 323 324 324 324 325 326 328 328 329 330 330 330 331 331 326 322 321 322 323 325 325 325 325 325 325 324 324 323 320 318 318 318 319 319 319 318 317 317 318
312 311 311 311 312 312 312 312 312 312 312 311 311 312 313 314 314 314 317 318 318 322 323 323 324 324 323 324 324 323 324 325 324 324 324 323 323 323 322 321 321 321 321 320 320 320 321 323 322 322 323 323 324 325 326 327 328 330 331 331 331 331 331 323 317 317 318 320 324 324 324 324 323 324 323 322 322 323 322 320 320 320 320 320 320 318 317 317
312 310 309 310 311 311 311 311 312 312 312 312 312 312 313 314 313 313 315 316 317 322 323 322 323 323 323 324 324 324 325 325 324 324 324 323 323 322 322 321 321 321 321 321 321 321 322 322 322 323 324 324 325 325 326 327 328 330 330 331 331 331 333 326 318 317 317 319 322 321 321 321 321 323 322 321 320 321 322 322 322 322 321 321 321 321 319 319
311 311 310 309 309 310 310 310 311 312 312 312 312 312 313 314 313 313 313 312 314 320 323 322 323 323 323 325 324 324 325 324 324 324 323 323 322 322 322 321 321 322 322 320 320 321 322 322 322 323 323 324 326 326 326 327 329 331 331 331 331 331 332 326 320 318 316 318 318 318 323 323 323 324 323 322 321 320 320 321 321 321 321 321 321 322 322 321
311 311 310 308 308 308 309 309 310 311 311 311 312 312 313 313 314 314 312 311 312 317 322 322 323 324 324 325 325 324 324 324 324 323 323 322 322 322 321 321 322 323 323 321 321 322 323 323 323 324 323 325 327 326 328 328 329 330 329 330 330 331 329 322 321 322 321 324 320 319 329 332 328 327 326 325 324 322 321 320 320 320 320 320 320 321 322 323
310 310 308 307 307 307 308 308 309 309 309 310 311 312 313 313 314 313 312 311 314 318 322 323 324 325 324 325 325 324 325 325 323 322 322 322 322 322 322 322 323 324 323 321 322 323 323 323 324 324 325 326 328 327 328 328 328 329 329 329 329 330 329 324 323 326 328 328 321 320 329 331 327 325 325 326 326 325 324 322 321 320 320 320 319 319 319 321
308 308 307 306 306 307 308 309 308 308 309 310 309 310 312 312 313 313 312 314 317 320 322 323 324 325 324 325 324 324 326 325 322 322 321 321 322 322 323 323 324 325 323 322 325 325 324 324 325 325 326 327 327 327 327 327 328 329 329 329 329 329 329 326 325 327 329 326 321 319 323 326 326 323 323 324 324 325 325 325 324 321 320 319 319 319 318 319
307 306 306 306 306 308 308 308 308 308 310 310 309 310 311 311 312 312 313 317 320 320 321 322 323 323 324 324 323 324 325 324 323 322 321 321 323 322 323 323 323 325 323 323 326 325 323 326 325 325 326 327 326 327 327 327 327 327 327 328 329 327 328 326 325 325 327 327 325 321 320 325 326 323 322 324 323 323 324 325 325 322 320 320 319 319 318 318
307 306 306 306 307 308 308 307 307 308 310 310 310 310 310 310 311 312 313 317 320 319 320 321 322 323 324 324 323 323 323 323 323 322 321 321 322 322 323 323 322 323 323 323 325 324 323 324 324 325 325 325 326 326 327 327 325 324 325 326 326 326 326 324 324 325 325 325 326 324 322 325 328 325 324 325 324 323 323 324 324 321 321 321 320 319 318 318
307 307 307 306 306 306 306 307 308 309 310 310 310 310 310 310 311 314 315 317 319 318 318 320 322 323 324 324 324 323 322 322 321 320 320 321 321 321 322 322 321 322 323 323 322 320 318 320 322 324 324 324 325 325 326 326 323 321 323 324 324 324 323 322 323 323 325 325 325 325 323 324 328 328 325 325 326 324 323 323 323 322 321 321 320 320 319 319
307 306 307 306 305 304 305 307 307 308 309 310 311 310 310 310 311 315 316 316 318 316 316 320 322 324 325 324 325 324 322 321 320 320 321 320 321 322 322 323 323 323 324 323 320 317 318 320 322 321 321 323 324 324 323 322 320 321 322 322 323 323 322 322 322 322 326 327 324 324 324 323 326 328 326 326 325 323 323 323 324 323 321 321 320 320 319 319
306 306 306 305 304 303 304 306 307 308 308 309 310 310 310 311 313 316 316 317 318 316 315 319 322 325 325 324 325 324 322 321 320 320 321 321 322 323 323 323 322 324 325 323 321 319 320 322 322 320 319 321 323 322 321 320 320 322 322 322 326 325 324 325 324 323 326 326 320 320 324 325 324 324 325 325 323 322 321 321 322 322 321 320 320 319 319 319
307 307 306 304 303 303 304 305 307 308 308 308 309 309 311 313 314 316 316 316 317 315 314 317 321 325 325 325 325 323 322 322 320 320 321 321 322 322 323 322 321 324 325 323 321 320 320 322 321 320 318 319 322 322 320 321 320 321 321 323 328 327 325 327 326 326 327 324 318 318 324 326 324 322 322 322 322 321 319 319 319 319 319 319 318 318 319 318
307 307 305 304 304 303 303 304 306 307 307 308 308 309 312 315 315 315 315 313 313 313 314 316 321 325 325 325 324 322 323 322 320 321 321 322 323 323 323 323 321 323 324 322 321 320 322 323 320 319 320 319 321 321 321 321 320 321 322 323 326 327 327 328 327 328 329 323 317 319 325 328 326 324 321 319 319 319 318 319 319 318 318 317 317 317 317 317
307 306 306 305 304 304 303 303 305 306 307 307 307 309 313 316 316 315 314 312 311 312 313 314 318 325 326 325 323 322 322 322 321 321 322 322 323 323 323 322 321 321 323 323 322 321 323 324 319 318 318 318 321 321 319 320 321 322 322 323 325 326 326 326 324 324 326 324 320 321 326 326 323 321 318 317 318 316 316 317 317 318 317 316 317 316 316 316
307 306 306 305 305 304 303 303 304 305 306 305 307 310 313 314 314 314 313 312 311 312 314 314 317 324 327 324 323 323 322 322 322 322 323 323 322 323 323 321 320 321 322 323 322 321 323 323 319 316 316 317 321 321 318 321 322 321 322 322 323 324 323 324 323 319 321 326 324 321 323 322 319 320 320 319 320 317 316 316 316 317 317 316 316 315 315 314
306 306 306 305 305 304 304 303 303 305 305 305 308 310 310 309 309 312 314 313 312 313 315 317 316 319 324 324 323 323 322 322 322 323 324 323 323 323 322 321 320 320 321 321 321 322 322 320 317 317 318 317 317 319 319 319 320 321 323 321 322 324 322 320 322 322 322 325 325 323 323 322 321 324 323 320 320 318 317 317 315 315 316 316 315 315 314 314
306 306 306 305 305 304 303 303 304 305 304 305 308 309 307 308 308 310 312 313 314 314 315 318 316 315 320 322 323 323 322 323 323 323 324 324 325 323 321 321 320 319 320 321 321 321 321 319 316 316 318 317 316 319 321 318 316 319 321 320 321 325 323 320 321 325 325 324 325 326 324 323 322 322 322 321 320 319 318 317 316 316 315 315 315 315 314 314
305 305 305 305 305 304 303 303 304 304 304 305 308 308 306 307 306 307 309 311 314 315 315 315 314 313 315 318 322 323 323 324 324 323 324 324 324 323 321 321 320 320 320 320 321 321 320 321 317 315 316 317 317 319 321 320 317 316 318 320 321 322 323 322 321 324 326 324 326 327 324 326 324 319 321 323 320 318 317 318 319 316 314 315 315 315 315 315
304 304 304 305 305 304 304 303 303 303 304 306 307 307 306 306 305 304 306 309 313 314 314 313 312 314 314 315 320 322 323 324 323 324 324 323 323 322 321 321 320 320 320 320 321 321 320 321 318 315 315 316 319 319 319 320 318 316 318 321 320 320 321 322 320 322 323 323 325 325 324 328 325 318 320 321 319 319 318 320 322 317 315 316 316 316 316 317
304 304 304 304 305 305 305 304 303 303 305 306 306 306 306 305 304 303 304 307 310 311 313 312 311 313 313 313 317 321 323 324 323 324 324 323 324 323 322 320 320 320 320 321 321 321 321 321 318 314 314 316 318 318 318 320 318 317 318 320 319 319 320 322 322 321 320 321 324 323 324 329 325 318 319 319 320 320 318 319 321 318 316 317 316 315 315 315
304 303 303 304 304 305 304 304 304 304 305 306 306 306 306 305 304 304 304 306 308 309 310 310 309 310 311 312 313 315 319 323 324 323 323 323 323 323 322 320 320 320 320 321 322 321 321 319 316 314 315 316 317 316 316 319 319 317 317 319 320 319 319 321 323 323 321 321 320 319 322 327 325 321 321 320 319 318 316 318 318 316 316 315 314 314 313 313
304 303 302 303 304 304 304 304 304 304 305 305 305 306 306 305 304 304 304 305 306 307 308 309 309 310 309 309 311 311 314 320 324 323 322 323 322 322 322 320 320 320 320 322 323 321 319 318 316 315 315 314 315 314 314 315 318 318 317 318 319 319 318 319 320 321 321 321 320 319 321 323 323 323 320 316 315 314 315 317 316 315 315 314 313 313 312 312
303 302 301 302 304 304 304 304 305 304 305 304 304 305 305 305 305 304 305 305 306 306 307 308 310 310 309 307 309 310 311 317 323 323 322 323 322 322 321 320 320 320 320 321 322 322 321 319 316 316 317 316 316 316 315 314 315 317 317 317 318 319 319 320 319 318 320 323 322 320 321 321 321 321 317 314 315 315 314 314 315 315 314 313 313 313 312 312
301 301 301 302 303 303 303 304 304 305 305 304 305 305 305 305 305 304 305 305 305 305 306 308 309 309 308 307 308 309 309 311 318 321 322 323 322 322 321 321 320 320 320 321 320 320 321 320 317 318 319 319 318 318 318 316 315 316 317 317 318 319 319 320 319 317 320 323 322 320 320 319 317 316 316 316 316 315 313 312 313 313 313 313 313 312 312 312
301 301 302 302 302 302 302 302 303 304 304 305 305 305 305 305 305 305 305 305 305 305 306 307 307 307 308 308 310 311 309 309 311 313 317 322 323 323 321 321 320 320 320 320 318 319 322 320 318 319 320 320 319 319 319 317 316 316 317 317 318 318 319 319 319 318 318 320 321 320 319 318 317 316 316 316 315 315 314 312 311 312 313 313 312 311 311 311
301 301 301 301 302 301 301 302 302 303 304 304 305 305 305 306 305 305 305 305 305 305 305 306 306 307 308 309 311 311 310 309 310 311 313 316 320 322 321 321 321 320 320 319 318 321 324 321 319 319 320 319 319 319 319 318 317 317 317 317 317 317 319 320 319 319 318 318 320 320 318 319 318 317 317 317 316 316 316 312 311 312 312 312 312 311 311 311
301 301 301 301 301 301 301 301 302 303 304 304 304 305 305 305 306 306 305 305 306 306 306 307 307 307 307 309 310 312 311 311 312 312 312 314 318 322 323 323 322 320 319 319 319 321 322 321 320 320 320 320 320 320 319 318 317 317 316 317 317 317 318 319 319 318 318 318 319 318 319 319 317 316 317 317 315 315 314 313 312 312 313 312 312 311 311 311
302 302 301 301 301 301 301 301 302 303 303 303 303 304 305 305 305 306 306 306 306 306 306 307 307 307 306 307 309 311 313 314 313 312 311 313 317 321 323 323 321 319 319 320 320 320 320 321 321 320 320 322 321 320 319 318 318 317 316 316 317 317 317 317 318 317 317 318 317 317 320 320 318 317 318 315 314 314 313 313 313 313 313 312 312 312 311 311
302 302 301 301 301 302 301 301 302 302 303 303 303 304 304 305 305 306 306 306 306 306 306 306 307 307 306 307 308 309 311 312 313 312 310 311 314 318 321 322 320 318 319 318 317 318 320 322 321 320 320 322 322 321 320 319 318 318 317 316 317 317 317 317 317 317 317 317 317 317 319 318 317 318 317 314 314 314 313 313 313 313 313 312 312 312 311 311
301 302 301 301 302 302 301 301 302 302 302 303 303 303 303 304 304 305 305 305 306 306 306 306 307 307 307 307 307 308 309 309 310 311 310 311 313 315 316 318 317 318 319 316 315 317 320 322 322 321 321 321 322 322 321 319 319 319 318 317 317 317 317 317 317 317 317 317 317 317 318 317 317 319 317 315 314 313 312 312 313 313 313 312 312 312 311 311
300 301 301 301 302 302 301 301 302 302 302 302 302 303 303 303 304 305 305 305 306 306 306 307 308 308 308 308 308 308 308 307 307 308 308 308 309 308 310 312 313 316 318 317 316 317 319 321 321 321 321 322 321 321 321 320 320 319 318 317 317 317 317 317 317 317 316 316 317 317 317 316 318 320 319 318 318 316 312 311 313 313 312 312 312 312 311 311
Wind_Speed
48 47 46 45 43 42 43 43 42 40 39 42 45 44 46 47 41 43 46 43 42 40 39 36 33 30 28 26 25 24 23 25 26 28 31 32 34 33 33 32 23 20 23 22 18 16 15 14 12 11 8 8 8 6 6 5 5 3 1 2 3 3 4 2 1 2 7 6 4 5 4 2 5 7 4 3 4 3 6 7 6 5 5 7 11 11 14 21
49 48 47 46 45 43 42 43 43 40 39 40 44 43 45 49 43 40 44 44 44 42 40 37 34 31 29 27 26 24 23 25 26 30 33 31 32 33 33 34 27 21 22 23 20 17 16 16 14 12 11 9 9 7 6 6 6 4 2 2 4 4 2 2 5 6 5 8 8 7 3 1 3 7 6 3 6 8 6 6 9 7 7 9 13 13 13 17
49 49 48 47 46 45 42 43 43 41 39 39 43 43 43 50 46 40 42 44 45 44 42 39 36 33 31 29 27 24 24 23 25 31 33 31 31 31 31 34 31 23 22 23 20 17 17 16 14 14 13 10 9 9 7 6 6 7 4 2 4 5 1 5 7 9 7 7 9 8 4 2 3 4 6 4 5 10 9 9 12 12 11 12 15 15 13 16
49 49 50 47 46 46 43 43 42 40 40 38 42 44 42 47 47 42 43 45 46 45 44 41 37 35 33 30 28 25 23 18 22 34 33 31 31 28 29 33 33 26 24 24 19 18 17 16 15 15 13 10 11 11 8 8 7 7 6 4 3 6 2 6 8 9 7 5 8 7 5 4 2 2 4 4 4 5 8 11 14 15 17 16 16 17 14 15
50 49 50 48 46 45 43 43 41 40 41 39 42 44 42 45 48 45 45 48 47 45 44 42 39 38 35 31 29 28 23 9 15 33 33 30 31 28 27 29 32 28 26 25 21 20 18 18 17 16 14 10 11 10 9 12 10 6 6 9 4 8 3 8 8 7 6 5 6 5 3 3 4 3 4 6 4 1 2 5 8 12 17 16 15 18 16 16
51 49 49 49 48 46 43 43 42 41 40 40 42 44 42 43 48 47 47 48 46 45 45 43 41 39 36 34 31 31 26 5 4 23 32 31 30 29 26 27 31 29 28 27 22 21 21 20 18 16 15 10 11 10 9 15 14 5 5 10 7 6 2 7 5 5 5 4 4 3 2 2 3 4 6 9 9 1 3 2 3 3 9 13 13 16 17 16
50 50 49 48 48 47 46 44 44 43 39 39 42 44 43 43 48 47 45 44 42 44 45 44 43 41 38 35 33 33 32 13 4 8 25 32 31 28 28 31 33 30 31 30 21 19 21 20 20 18 14 8 10 12 10 14 16 8 5 10 11 10 4 6 5 5 5 3 2 2 2 2 4 4 3 8 10 6 6 7 4 1 6 11 13 14 15 15
50 49 48 47 47 46 47 44 43 44 41 40 42 45 44 42 47 47 42 42 43 42 45 46 44 44 40 39 37 29 30 24 3 4 16 31 33 27 30 36 36 32 33 31 21 18 20 20 22 19 11 8 11 12 12 11 11 9 7 10 10 10 7 7 6 6 6 4 2 2 3 5 6 4 3 7 10 8 9 10 7 4 9 12 13 13 15 16
49 48 48 47 46 44 45 44 43 44 44 43 43 45 45 42 45 47 43 42 45 43 46 49 47 47 41 42 40 23 28 32 11 4 14 30 34 30 32 37 38 35 33 33 24 18 18 17 20 18 9 9 13 12 13 10 6 9 13 13 7 7 7 8 8 7 7 6 5 4 5 8 8 6 6 13 15 11 10 11 9 7 12 14 13 13 14 17
47 49 49 46 42 40 43 44 43 44 45 44 44 46 48 45 44 47 43 40 43 43 47 49 48 49 41 42 35 13 30 36 14 8 15 27 34 34 36 37 40 39 35 35 28 18 16 14 15 17 9 5 11 11 12 11 4 5 16 17 9 9 10 10 8 9 8 6 7 5 6 7 7 5 4 8 12 14 13 11 10 9 12 16 15 14 14 16
50 51 48 44 40 39 41 43 43 43 45 45 45 46 50 49 44 43 40 38 43 44 48 49 47 48 44 45 32 10 27 34 18 12 16 25 34 37 41 40 40 39 36 35 28 21 17 11 9 13 8 3 6 6 7 12 8 6 11 12 8 9 10 10 9 10 9 5 8 6 5 5 6 5 6 5 6 13 14 11 11 10 12 15 15 16 15 16
51 50 46 43 41 40 40 42 43 44 45 46 45 47 51 51 46 42 35 34 45 47 46 49 47 47 43 40 34 19 25 33 24 17 18 27 31 35 40 39 38 36 35 38 32 26 20 12 11 9 2 2 3 1 3 8 9 5 5 5 4 6 7 10 11 11 10 6 8 5 4 6 6 7 14 14 10 12 12 10 11 11 12 15 16 17 17 17
49 47 44 42 42 41 40 41 43 45 46 46 45 47 51 52 47 44 34 30 47 51 47 51 49 47 41 28 27 24 26 32 29 22 23 29 32 35 36 32 33 31 31 37 36 30 22 14 11 6 4 1 2 2 1 5 7 3 3 3 3 4 6 11 13 12 10 8 12 7 2 6 7 14 23 23 19 16 14 12 13 13 13 16 17 18 20 20
49 47 43 42 42 40 39 40 41 44 46 46 45 45 50 53 48 45 35 29 47 55 48 54 52 47 38 20 21 26 26 31 31 26 27 32 37 37 31 27 30 29 25 31 33 28 22 17 12 4 2 2 1 1 1 4 5 4 4 4 3 4 5 12 17 14 9 9 15 9 3 6 4 8 19 22 21 18 16 15 15 15 15 17 19 20 21 22
48 46 43 42 41 39 39 39 39 40 45 45 44 44 49 55 48 43 36 28 44 57 51 53 51 44 31 15 22 28 27 31 31 29 29 32 38 36 31 29 29 25 21 25 27 24 22 21 16 8 5 5 3 1 2 3 4 4 5 4 4 5 4 7 16 17 10 7 14 10 3 7 6 7 11 16 19 16 15 16 17 18 17 18 20 21 22 22
46 44 43 42 41 39 38 38 38 38 42 44 42 42 47 54 48 39 33 26 37 54 52 52 51 42 23 10 23 32 30 33 31 31 30 30 36 37 35 31 26 22 19 20 21 21 20 19 17 11 6 6 4 4 3 3 4 4 5 3 4 7 4 2 11 19 15 7 10 10 4 5 5 12 15 14 17 16 14 15 17 18 19 20 21 22 23 22
44 43 42 42 40 38 36 37 39 37 39 42 41 41 45 52 50 41 34 27 33 55 56 53 53 40 17 12 27 35 34 33 30 32 31 29 34 36 36 31 25 21 17 16 17 17 17 15 13 9 6 5 5 6 6 5 5 5 5 4 5 7 6 3 4 13 15 9 8 10 8 9 3 6 12 15 16 15 15 16 16 17 18 20 21 21 22 23
42 42 42 41 39 36 36 37 39 37 36 37 38 40 42 49 50 44 41 33 33 55 53 48 50 28 10 20 33 38 39 34 31 33 33 30 31 33 34 33 27 23 20 18 17 18 16 11 8 5 4 6 6 7 6 6 7 7 7 6 5 6 8 7 4 8 14 10 9 9 9 14 8 4 10 16 17 16 17 18 18 19 20 20 20 22 22 24
43 43 41 39 38 37 39 38 37 35 35 34 35 36 36 44 47 43 45 38 30 37 26 32 40 14 8 31 40 42 42 35 32 32 33 33 30 30 31 31 31 28 22 14 15 19 15 8 5 5 6 8 9 9 8 7 9 10 9 6 6 6 6 6 5 8 13 9 8 10 10 11 10 9 10 15 19 20 21 21 20 21 22 22 22 23 24 25
41 41 40 39 39 40 39 36 34 34 35 36 37 35 29 30 28 25 34 35 33 32 23 39 49 24 22 40 40 42 41 34 35 36 37 37 34 33 29 28 29 24 16 10 12 18 15 7 6 8 9 12 14 13 12 10 8 8 8 8 7 6 5 4 5 8 11 8 7 10 10 10 9 8 10 16 19 20 21 20 21 21 21 23 23 24 25 25
37 36 37 38 39 38 36 34 33 35 37 38 41 37 30 29 17 7 16 23 32 36 33 54 64 33 27 44 44 49 47 36 38 41 40 41 40 33 28 27 20 13 13 13 12 13 13 8 7 10 11 12 14 13 14 13 7 4 5 7 7 7 4 2 5 6 6 3 5 8 9 11 10 7 11 16 15 17 20 20 21 23 23 23 24 25 24 23
37 36 34 34 36 35 34 33 33 36 37 38 41 36 34 42 32 13 7 7 23 33 34 53 58 28 27 45 47 53 47 31 31 40 42 44 40 30 26 25 14 9 13 13 11 10 9 8 8 12 12 11 12 12 13 13 9 3 3 4 5 6 3 4 6 5 3 0 3 4 7 9 8 7 10 13 13 15 21 23 24 26 26 27 26 26 26 25
38 36 32 31 33 33 32 31 31 35 36 37 40 37 35 43 43 28 9 5 11 25 35 46 43 32 36 40 42 47 38 25 27 36 44 44 37 31 28 21 13 11 13 11 10 10 7 7 11 15 12 11 12 12 11 11 9 3 2 4 3 4 4 2 4 5 4 2 3 3 5 7 7 7 8 13 18 19 22 27 28 28 29 31 31 29 29 28
35 33 32 31 32 32 33 31 28 30 33 35 36 36 36 39 42 36 15 4 9 14 35 48 41 39 43 40 47 51 37 31 32 35 44 44 35 29 25 20 15 12 12 14 13 8 4 7 15 16 13 13 13 12 11 8 6 5 5 6 3 4 3 3 4 5 3 3 3 2 4 6 7 8 9 13 19 22 24 27 28 31 32 32 32 32 31 30
33 30 30 31 31 31 34 32 28 27 28 30 31 32 37 39 41 37 14 3 6 8 25 44 37 33 41 41 46 47 35 32 37 40 46 45 38 27 19 22 17 11 14 16 13 7 5 13 20 16 13 14 12 11 12 8 5 5 7 7 5 6 3 7 6 3 0 3 4 3 2 5 4 7 9 8 10 16 21 23 25 30 31 29 30 32 33 32
32 30 29 29 29 30 30 28 28 29 25 26 30 31 36 38 39 35 13 3 4 5 14 31 27 26 38 37 41 44 27 21 32 44 45 41 40 29 17 17 12 11 17 14 8 4 5 16 20 15 14 16 13 11 12 10 6 4 6 9 8 4 2 6 6 3 1 3 3 4 3 4 5 7 7 5 5 10 13 16 22 27 28 28 30 32 33 34
33 31 30 29 28 29 29 26 27 29 26 26 30 31 31 34 37 29 9 3 5 5 11 22 22 29 37 39 48 37 15 19 27 37 45 38 36 31 18 13 10 13 16 10 6 5 9 18 18 17 17 14 12 11 11 12 8 3 3 8 9 4 3 4 5 3 2 0 1 3 2 2 6 8 8 7 9 11 10 11 16 23 27 28 31 33 35 37
34 31 30 29 28 29 27 27 29 27 24 25 30 32 29 31 34 23 6 3 5 6 7 11 17 33 40 45 51 29 23 38 25 26 46 39 32 28 16 15 16 15 16 13 7 5 12 18 17 19 16 11 12 9 9 12 8 3 3 5 7 5 3 4 3 3 0 3 2 4 3 2 6 6 6 6 10 14 14 12 10 16 25 28 31 35 36 36
33 31 30 29 27 25 22 23 28 26 23 25 29 30 29 31 27 14 3 4 2 3 4 8 15 29 38 38 36 26 32 36 18 27 44 33 29 23 11 17 19 14 17 14 5 2 8 15 18 16 11 10 11 7 9 11 6 3 2 5 6 3 4 4 2 1 1 1 4 5 5 3 5 5 5 5 9 13 12 9 8 14 24 29 33 34 33 32
34 33 32 30 27 23 19 22 26 24 25 29 29 28 30 30 18 7 6 4 1 1 2 8 11 22 33 26 18 21 24 17 21 35 29 17 21 15 11 20 16 11 14 9 3 1 2 8 15 13 10 10 8 5 8 11 9 6 5 7 7 4 5 3 1 4 2 3 5 8 9 5 3 5 6 5 7 9 8 5 7 13 21 28 32 32 31 29
35 35 33 30 27 23 22 27 27 23 26 29 30 35 32 19 7 5 7 1 2 2 2 4 11 18 28 22 12 19 19 13 24 29 15 10 12 8 14 14 6 8 8 3 3 1 3 6 8 7 9 10 7 3 5 10 13 9 5 6 5 3 4 2 2 3 1 4 4 8 11 9 6 5 5 7 7 8 7 6 6 9 13 18 23 26 28 27
36 35 34 29 25 21 23 28 28 24 27 28 31 34 23 7 3 4 4 2 1 3 1 3 10 16 23 21 15 19 19 14 20 22 15 13 10 9 14 12 9 10 8 8 6 3 5 6 4 6 7 11 10 5 3 7 9 6 5 7 5 2 2 1 2 1 4 4 2 4 6 7 8 7 7 10 7 7 8 8 7 7 8 10 11 14 17 19
38 35 33 29 24 21 20 24 28 25 27 34 31 20 7 4 6 3 3 3 1 2 2 3 7 17 24 18 14 17 17 15 20 22 19 17 13 12 13 14 14 8 7 13 10 6 4 2 2 5 4 11 13 9 5 5 7 7 7 8 6 4 3 4 4 2 4 3 2 1 1 2 5 4 10 16 16 13 11 12 13 10 8 8 5 7 9 12
38 35 33 30 25 21 17 21 29 27 27 34 25 8 4 6 5 2 2 3 1 3 4 3 6 19 23 15 13 17 14 12 20 22 18 16 13 12 11 12 15 7 6 12 7 8 9 2 6 9 6 12 13 10 9 6 6 7 5 5 6 5 5 5 4 3 3 0 2 1 2 4 3 2 9 15 18 17 13 12 16 15 12 9 7 8 10 12
38 36 34 29 25 20 15 19 27 30 28 23 10 2 6 6 2 3 4 3 3 4 3 4 5 15 18 11 14 19 12 11 22 20 15 16 12 13 13 13 18 13 10 12 6 9 11 5 8 9 6 14 14 9 12 10 5 5 3 5 6 5 3 2 2 3 4 2 1 3 3 4 4 5 7 7 9 12 12 11 14 17 15 12 12 12 12 14
36 34 31 28 25 20 18 17 21 30 28 14 3 2 4 1 1 3 4 4 5 6 6 3 5 10 14 9 11 16 9 10 22 18 12 16 15 17 16 12 18 18 13 13 7 7 10 4 9 8 2 13 15 10 14 14 7 4 5 7 5 2 4 3 1 0 2 2 3 4 4 4 2 7 9 9 8 8 9 10 13 16 14 12 14 14 15 15
34 31 27 26 24 21 21 17 18 30 26 9 2 2 1 1 1 2 3 4 5 6 8 6 3 3 9 8 9 15 10 10 18 14 9 13 13 17 18 12 17 19 15 14 6 6 8 1 3 8 5 10 10 8 12 11 6 6 7 7 4 4 3 2 1 0 1 3 3 4 6 4 3 5 6 9 10 8 8 9 10 12 13 14 16 16 16 14
32 28 23 22 23 23 23 18 21 29 19 4 2 2 1 1 0 2 3 2 4 4 5 6 1 2 4 6 9 15 14 12 14 11 10 10 9 16 19 13 16 20 19 18 8 5 9 4 3 4 7 8 5 6 9 6 2 4 5 7 5 0 2 4 3 2 4 4 4 4 7 5 6 5 2 6 10 8 8 8 8 10 13 17 19 18 17 15
30 23 15 15 21 25 24 21 24 23 9 1 3 2 1 1 1 5 8 3 4 4 3 4 1 2 1 4 8 14 15 15 16 12 10 9 7 16 21 15 16 21 21 19 10 6 9 6 1 3 3 6 4 5 9 7 2 1 3 6 5 2 3 5 3 2 3 4 4 3 3 4 7 7 6 8 10 10 10 8 8 10 16 20 21 19 18 16
27 15 8 14 21 25 27 23 20 13 3 1 3 1 1 2 1 6 12 7 2 2 2 3 2 1 0 2 3 9 12 14 16 13 9 10 11 15 22 20 17 21 23 19 12 8 7 6 4 1 1 5 7 7 10 13 9 4 6 9 6 3 2 1 3 2 2 3 3 4 4 5 5 6 9 11 11 11 11 8 7 11 16 18 17 15 14 14
22 9 7 16 19 25 27 18 9 4 1 1 2 2 2 3 2 4 10 9 5 4 3 4 4 3 2 1 3 4 8 11 15 12 8 12 13 10 19 25 20 21 21 15 12 10 7 6 7 5 5 8 9 6 5 9 10 8 7 8 8 6 3 2 4 5 3 3 3 3 5 7 5 3 7 9 8 9 11 9 7 12 15 14 12 12 11 12
15 6 9 17 21 27 24 10 2 2 1 0 2 3 4 4 3 3 6 7 6 5 5 5 4 3 3 1 1 2 2 7 14 13 8 14 16 11 20 32 29 25 20 13 12 11 5 5 7 6 5 5 3 2 3 2 6 8 5 5 7 6 5 6 6 5 4 3 2 1 4 6 5 1 3 5 4 6 12 12 9 11 14 12 10 9 8 9
14 11 13 18 25 28 17 4 3 3 1 2 3 4 5 3 3 3 4 5 4 3 3 3 3 2 2 1 1 3 4 1 12 15 12 15 17 13 21 33 31 25 18 12 11 8 5 5 6 5 2 2 3 2 3 5 3 6 7 7 8 9 10 8 4 3 4 4 3 3 5 6 5 4 4 4 6 7 7 12 14 14 13 11 9 7 6 8
20 18 13 15 23 21 8 2 5 4 2 3 3 3 4 3 3 3 3 4 3 3 2 2 3 3 2 3 3 3 5 2 8 13 11 11 13 15 26 36 33 22 16 14 14 10 5 6 8 8 4 2 3 2 1 2 4 7 10 11 10 11 11 7 3 1 2 5 6 5 7 7 4 4 4 3 6 6 5 9 13 14 13 11 8 7 7 9
18 14 9 11 16 12 4 1 3 4 5 4 3 4 4 3 3 5 4 3 1 2 2 2 5 5 4 4 3 3 4 2 2 3 3 6 8 11 25 36 33 23 19 21 21 14 6 6 9 11 11 9 9 9 9 8 8 6 8 12 14 14 12 9 5 3 4 7 7 5 10 7 1 3 4 1 4 5 6 8 10 11 11 10 9 9 9 10
11 6 5 8 9 7 5 3 0 3 6 5 4 4 4 3 4 6 6 4 1 1 3 2 4 5 3 4 3 3 3 3 1 3 3 3 2 4 22 35 31 27 25 24 25 16 3 5 11 12 13 14 11 8 7 8 8 8 10 13 15 14 12 8 5 7 10 8 4 7 13 11 5 4 6 5 6 6 7 8 10 11 11 11 10 9 9 10
7 5 6 6 4 4 4 3 2 3 5 6 4 3 5 5 4 5 4 2 3 3 2 1 1 1 2 3 3 3 2 2 2 1 5 2 3 2 22 31 26 28 26 20 23 16 3 6 13 13 14 14 8 7 11 12 13 15 15 15 15 15 14 11 11 14 12 6 7 15 17 15 13 8 7 8 8 7 6 9 14 15 13 13 11 10 11 12
5 6 10 10 5 4 5 4 4 2 4 6 3 3 6 6 4 4 2 1 4 4 1 1 1 1 1 2 2 3 4 2 2 0 3 3 3 3 15 18 16 25 24 16 17 12 4 8 13 12 13 11 8 11 13 14 13 14 17 17 17 18 18 17 18 18 13 8 14 19 14 15 18 11 9 9 8 9 10 12 15 15 14 13 13 13 16 17
5 8 12 11 4 4 7 6 5 3 3 5 3 3 7 7 6 5 2 2 3 3 2 0 2 4 2 1 2 1 3 3 2 2 1 4 3 3 10 9 6 14 17 11 10 6 5 10 11 11 11 9 10 12 13 14 13 13 17 18 17 19 21 22 20 18 15 14 21 20 11 15 19 10 10 13 14 13 12 13 14 15 16 15 16 18 20 20
6 7 9 8 2 5 8 6 6 5 3 4 3 2 5 7 7 6 4 4 4 4 6 3 2 5 5 3 2 1 1 3 3 3 2 2 3 1 4 5 2 7 10 7 5 4 7 10 10 10 9 8 11 12 13 16 15 15 18 19 18 18 19 21 22 19 16 18 25 21 14 18 16 8 9 16 17 12 9 14 17 18 19 18 19 21 22 23
7 6 9 8 2 5 7 4 4 4 3 5 4 4 4 5 7 7 5 7 6 4 7 6 3 4 4 5 5 4 4 2 3 2 2 3 2 7 4 3 2 5 7 4 3 5 7 8 8 8 7 8 11 14 14 13 12 12 15 18 21 22 21 23 23 19 16 19 22 19 16 17 10 5 7 11 12 11 11 17 20 21 22 23 23 24 24 26
8 8 10 9 3 5 6 3 3 3 3 5 5 5 5 4 7 6 4 7 10 8 8 8 5 3 2 5 7 8 8 8 7 6 4 6 10 14 12 11 9 3 4 5 5 6 8 8 6 7 9 11 11 11 10 9 8 9 15 22 27 27 23 20 18 17 18 20 18 15 17 16 4 5 8 9 8 10 13 20 24 25 27 27 27 27 27 29
Wind_Direction
233 232 231 231 231 231 232 232 232 231 229 227 225 229 228 220 218 219 218 217 217 216 215 215 214 210 206 209 213 219 222 216 213 215 219 219 216 213 204 200 201 197 201 202 193 192 194 193 196 194 201 215 214 206 199 204 197 192 159 205 229 228 247 223 152 117 129 125 121 138 176 188 134 157 190 186 177 168 139 152 172 165 168 128 127 154 158 170
231 231 230 230 230 230 230 230 231 230 228 226 223 226 227 219 216 217 217 217 216 217 215 213 213 210 206 208 211 216 220 215 215 220 220 218 219 218 209 203 200 196 198 198 191 190 192 192 194 190 192 204 208 204 204 205 199 208 225 224 231 222 246 36 53 55 98 115 117 118 133 273 108 147 173 190 196 185 168 176 177 168 170 148 148 164 168 180
230 230 229 229 228 229 231 229 230 229 226 225 222 224 225 218 215 216 217 218 215 215 214 210 211 209 204 206 208 213 216 211 216 224 222 219 221 220 214 207 200 200 201 195 192 193 193 192 190 189 194 204 196 191 205 201 199 216 225 229 241 251 53 65 68 71 75 101 113 108 118 145 94 133 166 203 209 188 192 189 177 173 179 171 168 178 179 182
228 228 228 227 226 229 231 228 227 226 224 223 221 222 224 217 213 214 215 217 215 212 212 208 208 207 203 202 205 206 203 205 223 227 224 219 219 218 216 210 200 201 203 191 189 197 196 193 192 191 196 218 205 191 195 182 185 201 210 225 275 312 347 93 90 93 91 92 103 112 137 152 137 150 171 212 237 199 206 201 195 192 193 191 181 188 191 183
228 227 225 225 224 226 227 225 225 223 219 220 221 221 222 215 212 215 214 213 214 210 208 206 205 205 201 197 201 198 188 194 240 231 227 218 216 215 211 206 198 198 199 188 185 194 200 199 193 194 200 221 217 201 198 190 198 208 219 241 289 331 345 96 94 106 117 112 113 139 165 137 145 199 213 228 241 126 114 167 188 196 198 201 190 193 199 191
228 226 223 224 223 222 223 223 223 219 215 217 220 221 221 216 213 217 213 208 210 209 206 204 203 201 197 194 198 195 190 187 296 230 226 219 213 211 203 196 196 196 192 185 183 193 203 200 187 194 203 214 221 210 203 199 204 219 232 237 255 296 339 97 118 127 124 142 154 169 156 139 176 233 228 229 237 196 40 80 138 155 189 200 194 195 203 202
226 223 221 222 221 220 220 220 220 216 212 214 219 220 219 217 215 218 215 210 210 208 204 203 202 200 193 189 191 192 197 198 17 233 221 217 213 209 199 190 191 188 186 182 179 193 198 193 187 197 202 204 224 214 211 209 200 202 230 225 230 246 212 125 154 149 142 169 173 168 161 207 225 249 226 223 239 250 284 278 247 178 167 190 197 202 210 214
222 220 219 219 218 216 215 216 216 211 210 212 217 220 218 217 217 216 217 217 212 208 205 202 200 199 189 185 185 186 198 196 202 289 213 211 208 201 194 189 189 185 186 183 176 191 193 190 191 197 201 203 220 216 212 215 199 199 236 235 218 222 197 143 159 162 161 183 193 205 211 238 235 237 257 240 244 251 260 263 258 218 173 193 210 211 212 216
219 216 214 214 213 211 211 213 214 210 208 209 214 219 218 216 215 214 215 212 208 209 207 202 200 197 189 187 185 186 207 197 198 264 201 203 199 190 187 187 190 188 186 183 179 190 195 201 200 200 212 213 222 220 205 208 205 196 220 237 197 187 199 154 159 168 166 188 185 200 228 237 230 226 259 255 249 243 236 241 251 226 184 195 215 216 212 214
215 212 208 208 209 209 210 211 213 211 208 209 212 217 219 217 214 212 211 208 207 209 208 204 200 193 186 187 181 192 217 200 190 211 193 198 194 186 184 181 184 184 181 179 179 182 190 209 207 207 224 240 238 227 200 201 221 204 214 227 198 187 204 172 178 184 172 192 185 198 246 226 200 201 251 258 243 226 218 226 236 228 199 197 210 218 217 214
211 210 206 206 210 211 211 212 213 212 210 209 211 216 220 219 218 214 209 209 211 210 208 205 200 192 185 188 183 189 212 195 179 189 191 196 193 188 187 185 187 188 189 188 185 183 190 201 176 186 212 263 248 234 215 203 217 255 219 216 199 195 202 183 203 196 171 191 192 202 284 244 180 188 226 221 204 206 207 214 219 216 205 202 205 214 219 216
209 208 205 206 209 210 211 212 212 212 211 209 210 214 217 219 222 219 206 206 212 210 208 205 202 193 183 190 193 192 200 192 182 179 187 197 194 191 190 191 192 193 200 200 193 188 194 196 154 140 144 242 214 208 261 196 190 248 210 190 194 205 213 200 212 200 176 184 178 163 310 252 208 212 229 227 212 203 201 204 212 214 207 205 204 210 217 217
205 204 204 205 206 209 210 209 210 213 212 210 210 210 215 218 222 221 208 208 212 208 206 204 202 193 181 188 196 191 192 190 188 180 182 194 191 187 186 188 189 190 195 194 188 188 194 194 166 111 49 237 208 122 218 178 167 182 187 207 205 207 228 209 209 203 190 184 168 152 277 238 226 227 230 229 219 209 208 207 212 220 213 206 206 210 217 216
201 200 203 204 207 210 209 209 210 213 213 212 212 209 213 216 221 224 217 219 211 204 206 204 199 190 182 186 183 182 186 185 191 186 179 188 187 183 185 190 192 192 191 187 186 190 199 202 195 217 277 225 319 38 136 184 189 182 187 218 215 220 233 201 197 195 190 176 162 154 244 244 255 238 228 223 214 204 207 211 211 217 217 210 207 210 217 220
200 199 202 205 209 210 208 210 208 210 212 213 213 209 211 214 219 223 226 233 209 199 204 201 193 183 178 183 175 175 181 182 189 190 182 184 184 181 187 196 198 200 201 196 197 202 210 214 209 213 227 223 262 267 187 183 194 201 197 200 207 229 260 195 185 188 188 167 162 155 244 249 245 251 230 207 200 199 206 214 213 214 216 214 212 211 215 221
199 199 200 204 208 209 209 208 205 206 209 212 213 209 210 214 216 220 230 239 208 196 198 194 187 180 171 169 174 172 175 179 185 188 187 185 181 183 189 193 194 201 206 201 203 208 209 209 201 189 193 222 229 190 174 185 190 210 214 202 197 205 248 211 177 189 185 154 174 183 229 256 225 239 233 199 193 199 208 217 218 216 216 214 215 217 217 219
200 197 198 201 204 205 203 200 201 202 206 210 211 209 211 212 214 222 231 243 215 196 194 190 184 182 174 162 171 172 174 178 180 182 186 185 179 182 185 181 178 182 180 180 186 186 180 178 179 177 183 217 221 183 176 197 188 187 208 225 221 201 207 198 160 189 182 162 192 198 229 249 232 222 215 198 198 202 207 219 223 223 222 217 215 217 220 220
202 197 196 197 198 196 193 194 197 200 204 207 209 210 213 212 213 221 231 244 213 189 193 190 181 181 183 169 171 174 176 175 176 179 180 177 177 181 181 175 169 157 148 160 173 169 164 164 168 167 177 201 215 198 184 187 180 181 194 212 232 215 206 196 154 178 183 186 206 195 224 243 247 235 202 197 204 211 219 226 232 234 232 224 216 216 221 223
201 196 193 193 193 191 192 195 197 200 202 204 207 208 210 210 211 220 230 238 210 181 183 180 176 182 172 170 172 173 175 173 171 175 173 169 172 175 174 174 170 157 147 156 174 173 164 153 173 186 187 192 201 204 199 189 185 193 196 200 226 229 218 200 144 163 182 189 209 209 227 241 240 237 218 210 211 217 226 231 236 238 234 226 219 219 223 225
196 192 192 194 195 192 192 196 199 202 202 201 200 197 197 197 201 220 229 232 217 189 168 169 177 187 168 161 164 165 168 171 170 169 170 167 164 162 163 167 169 166 164 162 171 173 165 163 197 195 188 188 193 201 209 209 197 200 202 199 218 233 229 205 151 163 178 184 206 215 234 246 241 238 232 225 218 217 223 225 229 231 229 226 221 220 223 227
192 187 182 180 183 186 188 193 197 198 200 201 197 191 190 190 187 216 221 235 232 206 180 177 181 185 168 159 162 166 163 166 172 170 170 166 161 159 162 165 166 177 180 159 148 157 170 197 204 187 186 189 195 201 211 221 218 213 218 202 206 223 231 142 131 165 170 178 222 221 242 249 242 243 239 231 222 218 219 219 223 226 227 229 225 220 222 228
191 182 170 165 171 176 180 186 190 191 194 197 195 193 195 196 196 201 194 252 248 220 192 182 180 170 162 165 170 171 162 156 166 169 170 168 166 165 164 170 174 179 172 154 143 156 186 214 191 180 189 191 203 210 213 225 232 236 259 239 211 199 187 98 114 147 131 105 250 250 266 262 253 250 242 234 232 231 227 225 226 226 227 229 228 224 224 228
185 177 172 171 173 174 178 183 183 183 187 190 193 196 198 198 200 209 216 3 274 223 189 180 175 159 160 166 167 166 159 152 159 167 171 170 172 172 166 171 178 171 169 166 168 175 193 204 177 177 193 197 204 216 215 224 232 213 224 255 235 186 194 157 150 148 135 217 285 326 293 279 272 265 257 243 242 245 238 235 235 232 231 231 231 230 228 228
179 174 173 176 176 177 183 185 179 177 181 187 191 195 198 198 201 210 216 4 310 231 186 179 176 170 166 165 168 168 162 162 162 165 172 171 171 174 172 172 171 172 180 176 173 180 176 166 168 175 197 203 199 210 214 218 224 195 207 239 232 211 212 103 133 155 144 241 267 335 303 279 252 243 251 242 235 241 240 237 237 234 234 234 232 233 233 231
179 178 177 180 183 185 187 187 186 184 182 185 187 192 197 196 201 206 200 20 299 241 185 178 180 177 166 165 172 168 158 165 168 166 171 174 169 167 171 174 173 178 181 172 169 188 180 161 170 178 198 205 201 209 209 208 218 205 212 227 237 248 204 116 130 145 91 261 203 163 270 280 255 236 242 236 221 231 234 232 234 233 232 233 232 233 235 236
182 181 180 183 186 186 183 183 192 195 190 190 189 190 195 196 201 203 188 22 262 230 178 173 177 174 164 165 165 158 155 168 170 168 170 174 172 164 162 171 180 182 173 167 168 196 184 167 174 184 191 201 209 211 206 202 213 226 209 208 222 262 76 122 144 135 250 258 180 167 216 272 300 279 265 273 257 241 230 226 230 230 229 230 232 234 235 235
179 178 181 184 183 179 174 173 183 189 186 190 195 195 194 195 199 195 173 334 238 191 172 167 169 173 169 163 159 157 154 146 156 171 171 172 173 170 166 166 177 182 166 158 180 190 178 174 178 185 188 197 209 210 201 193 196 244 232 189 194 200 114 139 157 176 221 81 157 210 200 265 284 273 265 279 283 271 248 231 225 222 223 225 231 234 235 235
176 178 182 181 179 178 178 178 178 182 183 185 190 194 195 193 190 179 150 276 200 146 170 165 162 171 167 162 162 155 138 145 152 178 175 174 175 175 183 177 173 176 166 167 188 177 176 185 184 183 187 197 206 204 180 175 183 255 262 167 168 185 155 133 148 215 269 61 246 217 152 251 263 261 253 234 252 263 251 238 223 213 217 221 228 233 235 237
174 176 176 172 171 175 185 187 179 180 184 179 179 186 191 187 175 157 157 250 185 109 157 159 161 165 157 158 164 148 143 155 155 165 174 180 178 177 187 178 168 165 173 179 182 157 182 193 188 183 192 195 195 194 166 169 186 225 195 103 94 89 95 101 145 175 62 358 231 189 158 223 258 254 243 210 227 249 248 239 228 216 217 220 225 231 234 238
171 171 169 165 165 166 175 181 176 173 166 163 168 172 175 174 162 155 204 214 112 56 171 160 164 158 150 153 164 150 147 153 140 152 169 177 175 174 148 158 161 154 174 176 132 119 148 175 185 189 199 189 175 180 175 170 160 146 124 93 78 59 74 68 27 69 47 268 212 179 176 192 257 242 217 210 218 229 235 231 234 227 220 221 223 227 233 237
170 171 169 166 163 160 165 171 173 172 160 150 151 152 154 157 159 192 197 136 76 209 287 172 163 156 154 154 158 154 147 136 143 153 159 150 169 171 137 148 159 145 163 144 101 129 114 153 181 174 179 172 139 127 158 150 146 138 129 118 98 66 64 47 25 71 228 244 192 185 183 183 227 233 217 241 221 198 214 214 226 236 220 217 219 223 232 236
172 172 170 167 161 158 166 170 169 170 169 161 150 147 144 144 202 203 173 101 115 184 234 200 178 164 160 157 154 156 147 141 155 157 156 159 170 175 165 170 167 156 172 174 161 165 160 177 167 117 151 162 137 109 107 140 157 156 147 139 127 119 107 181 185 169 231 242 241 210 187 195 233 239 248 271 250 193 204 210 230 246 202 188 201 211 221 226
174 171 168 166 163 162 168 169 164 159 167 171 164 154 146 172 185 180 145 156 169 139 136 254 206 167 160 161 158 154 147 150 162 161 163 167 167 179 187 178 165 158 171 172 166 153 156 274 179 138 160 174 162 156 163 169 177 177 162 157 162 158 172 206 197 213 237 246 274 238 132 237 268 250 226 245 248 231 223 218 226 234 198 174 189 208 214 217
171 169 168 168 168 169 169 168 168 164 163 165 165 167 183 179 170 119 144 179 106 111 152 258 215 170 166 168 160 153 149 155 162 162 166 167 169 183 185 175 175 161 138 163 168 162 170 243 192 176 168 177 184 179 163 144 162 185 171 159 180 180 187 196 184 204 206 42 313 245 159 196 211 233 214 228 245 247 249 235 219 220 219 211 211 219 223 225
168 169 168 168 170 169 165 164 171 176 169 156 150 196 182 173 151 138 162 172 133 133 171 269 226 176 171 169 164 163 158 156 161 164 171 171 173 180 174 178 185 175 154 166 171 173 184 201 178 174 162 171 181 172 148 132 152 199 163 167 206 205 173 159 175 203 166 101 280 222 237 221 205 273 260 240 254 251 249 242 214 207 214 218 221 228 234 236
163 166 167 168 169 166 163 159 169 180 175 155 131 208 184 157 110 152 151 153 165 147 147 227 249 190 176 165 166 170 155 148 161 163 174 176 177 180 177 181 186 183 173 167 160 174 188 185 158 157 161 179 178 167 161 159 159 186 188 190 199 117 101 120 218 304 104 214 228 187 249 282 276 283 263 228 238 244 235 233 216 204 202 212 229 238 243 246
158 160 161 165 165 164 166 157 161 175 173 161 184 173 73 354 95 137 125 140 169 141 141 185 246 197 177 166 166 167 145 141 164 164 166 175 181 179 177 184 188 188 182 170 168 177 168 79 166 167 158 182 177 149 167 176 148 160 193 182 123 48 49 114 187 71 132 240 243 181 219 240 211 262 254 213 218 230 228 221 214 211 206 212 227 235 242 250
152 149 147 158 164 165 165 157 160 167 162 145 201 157 48 326 345 16 32 109 157 136 153 187 196 26 180 172 165 164 153 152 166 167 161 170 180 176 175 183 190 193 185 173 170 161 150 94 328 204 160 168 165 131 168 202 166 165 184 156 134 138 215 172 182 192 187 225 261 222 216 213 209 224 220 198 206 216 226 212 199 207 205 211 225 232 239 247
143 136 128 151 165 165 164 161 161 160 148 130 186 171 73 110 38 10 4 357 167 148 162 170 82 9 209 180 168 167 167 165 166 164 166 175 177 175 179 180 184 192 188 179 172 155 158 146 20 262 181 161 171 170 181 191 179 202 185 169 178 213 184 180 194 185 170 204 253 260 220 225 225 207 188 197 198 202 214 207 198 200 201 213 227 230 233 239
135 122 115 150 159 165 166 160 154 149 144 206 154 87 76 102 56 11 9 9 105 116 168 159 117 85 66 292 214 175 172 167 167 170 173 178 173 175 184 182 178 185 186 184 177 155 158 157 135 171 191 162 184 202 194 185 179 180 184 183 189 186 128 155 213 214 152 176 233 253 248 257 244 202 197 201 193 196 206 205 206 202 200 209 214 210 215 222
133 108 128 148 155 165 163 152 143 145 174 178 107 90 114 92 86 32 14 15 43 54 81 121 120 116 121 290 296 207 181 169 173 178 172 178 181 180 187 184 177 176 180 184 183 170 170 167 146 149 179 186 194 198 182 183 184 181 186 185 180 177 138 141 211 214 189 190 198 209 251 271 266 202 186 189 183 191 199 197 199 195 187 183 180 183 197 209
127 100 143 151 157 161 155 140 126 158 162 138 111 119 117 89 78 66 24 22 44 52 56 89 111 95 101 144 345 334 214 176 178 181 177 186 193 192 186 184 178 172 175 183 183 169 136 118 135 142 170 184 182 134 67 86 175 182 201 192 174 176 174 184 208 202 195 216 160 152 277 277 270 269 123 153 147 163 188 182 165 166 166 164 172 184 198 209
108 111 143 156 159 156 150 137 140 140 94 71 94 104 105 90 75 75 42 33 45 51 53 86 121 104 88 132 101 26 1 231 187 184 184 190 198 191 175 177 177 174 177 184 181 162 99 103 132 119 97 54 50 40 14 28 107 179 209 202 183 192 197 200 209 164 187 218 173 189 257 262 278 324 32 73 92 106 154 158 144 149 160 169 181 188 202 210
105 115 133 159 162 157 155 167 153 159 137 84 85 108 101 80 84 90 64 46 35 34 70 99 89 89 115 110 102 61 22 334 202 192 189 190 193 179 169 174 177 178 185 184 179 180 165 146 143 133 139 133 85 82 245 233 203 201 206 201 197 198 196 209 245 181 222 225 177 185 242 242 265 317 351 49 104 115 142 157 156 164 174 178 183 194 210 214
111 112 126 158 168 176 225 246 145 164 154 119 121 137 117 90 103 110 99 88 54 25 48 80 74 79 114 115 94 70 55 53 218 230 211 181 180 171 170 176 179 183 194 185 171 172 174 156 157 162 171 176 177 186 194 198 202 200 193 194 201 203 192 197 222 220 238 223 176 190 241 243 291 314 282 221 145 162 183 184 184 184 183 182 188 206 216 218
119 110 128 151 170 202 250 294 34 172 167 153 150 150 145 135 127 128 115 105 156 86 41 49 77 76 99 116 100 89 74 66 65 344 336 168 179 174 172 176 181 187 191 179 164 159 146 173 182 188 190 190 192 181 140 132 159 181 188 190 198 205 196 188 197 214 225 221 195 227 241 245 250 248 242 217 191 198 198 192 198 196 190 190 197 212 220 220
126 134 151 152 160 205 234 257 231 196 168 158 148 145 156 147 132 141 137 136 171 158 63 39 112 48 88 124 111 114 111 55 87 346 326 300 315 206 172 176 183 185 183 174 166 159 111 190 191 198 206 203 187 144 128 143 173 186 187 189 193 195 194 196 207 217 215 202 234 237 233 241 245 223 219 229 211 207 206 196 202 203 197 197 201 210 216 211
128 142 160 159 149 189 198 188 200 201 150 155 141 110 148 154 135 135 144 162 158 160 102 44 205 257 85 112 71 110 139 86 74 82 340 297 279 150 164 176 185 180 175 174 176 164 142 197 192 192 204 200 165 152 155 166 182 186 185 190 193 190 194 205 215 219 205 194 236 236 217 233 245 223 210 229 212 203 208 199 201 201 195 198 202 208 212 205
118 125 154 164 150 160 158 139 156 177 146 157 151 113 149 165 159 140 118 119 138 171 197 331 209 200 188 124 33 87 153 121 113 162 357 311 292 132 156 171 189 186 178 172 184 180 175 196 188 179 195 196 173 167 164 168 176 183 187 191 192 191 199 209 217 220 208 213 240 240 221 237 244 217 200 220 217 216 209 188 188 192 192 200 206 211 213 203
108 110 147 167 142 141 149 138 152 171 162 161 176 165 158 164 160 145 134 147 142 160 185 213 198 173 188 198 161 241 258 57 69 135 155 235 294 10 150 145 132 202 191 163 178 210 200 194 178 167 189 206 192 183 176 173 176 183 188 190 190 192 202 212 218 217 208 220 237 239 239 251 246 204 195 212 208 202 182 175 189 197 199 204 209 213 213 201
111 107 133 148 121 131 147 150 152 163 173 166 168 170 165 171 165 146 147 174 173 157 173 190 191 161 185 206 201 221 248 312 346 7 121 176 311 358 10 26 42 193 190 155 151 195 201 189 165 161 190 210 199 190 184 175 171 183 192 189 189 195 203 209 215 212 203 217 233 235 238 248 240 172 192 205 188 178 176 184 197 205 206 209 211 213 210 200
108 103 127 137 129 134 144 154 154 167 196 186 179 175 164 158 155 142 143 182 192 193 177 170 172 161 181 215 217 217 218 233 264 289 306 294 312 334 341 344 351 340 191 174 172 186 189 180 157 160 195 211 196 175 162 150 158 196 202 194 194 199 204 209 216 215 209 213 222 227 230 235 217 138 196 206 186 189 192 192 201 209 210 212 214 212 207 201